This demonstration page uses our WeatherBlox Daily Observations layout. Learn more.

Left ArrowRight Arrow

Hourly Observations for December 17, 2021

Temp ( °F °C ) Dew Point ( °F °C ) Humidity (%) Winds ( mph kmh ) Pressure ( in mb ) Visibility ( mi km ) Precip ( " mm )
12:56 am 00:56 Clear 28 -2 21 -6 74 74 Calm 30.15 1021 10 16 0.00 0.00
1:56 am 01:56 Clear 27 -2.9 20 -6.9 74 74 E 5 7 30.16 1021 10 16 0.00 0.00
2:56 am 02:56 Partly Cloudy 27 -2.8 20 -6.8 74 74 ENE 3 6 30.17 1022 10 16 0.00 0.00
3:56 am 03:56 Mostly Cloudy 28 -2.5 19 -7 72 72 E 3 6 30.16 1021 10 16 0.00 0.00
4:56 am 04:56 Mostly Clear 28 -2.4 19 -7.1 70 70 E 6 9 30.15 1021 10 16 0.00 0.00
5:56 am 05:56 Clear 27 -2.8 19 -7.3 71 71 E 3 6 30.14 1021 10 16 0.00 0.00
6:56 am 06:56 Mostly Cloudy 28 -2.3 19 -7 70 70 E 6 9 30.13 1020 10 16 0.00 0.00
7:56 am 07:56 Mostly Cloudy 29 -1.5 20 -6.8 68 68 E 8 13 30.13 1020 10 16 0.00 0.00
8:56 am 08:56 Mostly Sunny 30 -1.1 20 -6.8 66 66 E 7 11 30.13 1020 10 16 0.00 0.00
9:56 am 09:56 Sunny 32 0.2 21 -6 63 63 E 8 13 30.11 1020 10 16 0.00 0.00
10:56 am 10:56 Mostly Cloudy 36 2.3 22 -5.6 56 56 E 13 20 30.11 1020 10 16 0.00 0.00
11:56 am 11:56 Sunny 41 5 22 -5.4 47 47 ESE 16 26 30.06 1018 10 16 0.00 0.00
12:56 pm 12:56 Cloudy 42 5.4 20 -6.5 42 42 ESE 13 20 30.03 1017 10 16 0.00 0.00
1:56 pm 13:56 Cloudy 41 5 21 -6 45 45 VRB 3 6 30.01 1016 10 16 0.00 0.00
2:56 pm 14:56 Cloudy 42 5.3 20 -6.6 42 42 SE 12 19 30.04 1017 10 16 0.00 0.00
3:56 pm 15:56 undefined 40 4.7 21 -5.9 47 47 SE 8 13 30.05 1018 10 16 0.00 0.00
4:56 pm 16:56 Cloudy 39 4.1 21 -5.9 49 49 E 6 9 30.07 1018 10 16 0.00 0.00
5:56 pm 17:56 Cloudy 39 3.7 21 -6 50 50 ENE 8 13 30.08 1019 10 16 0.00 0.00
6:56 pm 18:56 Cloudy 38 3.5 21 -6 50 50 NE 6 9 30.09 1019 10 16 0.00 0.00
7:56 pm 19:56 Cloudy 38 3.1 22 -5.6 53 53 NE 6 9 30.12 1020 10 16 0.00 0.00
8:56 pm 20:56 Mostly Clear 35 1.5 21 -5.9 58 58 NE 6 9 30.13 1020 10 16 0.00 0.00
9:56 pm 21:56 Clear 34 1.2 21 -6.2 58 58 NNE 5 7 30.15 1021 10 16 0.00 0.00
10:56 pm 22:56 Clear 30 -1 21 -6.2 68 68 NW 5 7 30.16 1021 10 16 0.00 0.00
11:56 pm 23:56 Clear 28 -2.2 20 -6.4 73 73 WNW 6 9 30.18 1022 10 16 0.00 0.00

Powered by AerisWeather